| time (UTC) | temp F | wind direction | speed MPH | gust MPH | rain 1hr in | rain 24hr in | rain mn in | humidity % | barometer mb |
| 20260502205818 | 0 | 79 | 3.0 | 11.0 | 0.00 | 0.00 | 0.00 | 72 | 1015.7 |
| 20260502205255 | 0 | 106 | 3.0 | 9.0 | 0.00 | 0.00 | 0.00 | 71 | 1015.8 |
| 20260502204732 | 0 | 82 | 3.0 | 9.0 | 0.00 | 0.00 | 0.00 | 71 | 1015.8 |
| 20260502204209 | 0 | 92 | 3.0 | 9.0 | 0.00 | 0.00 | 0.00 | 70 | 1015.8 |
| 20260502203646 | 0 | 103 | 5.0 | 7.0 | 0.00 | 0.00 | 0.00 | 69 | 1015.9 |
| 20260502203123 | 0 | 81 | 4.0 | 6.0 | 0.00 | 0.00 | 0.00 | 64 | 1016.0 |
| 20260502202600 | 0 | 106 | 2.0 | 9.0 | 0.00 | 0.00 | 0.00 | 65 | 1015.9 |
| 20260502202037 | 0 | 77 | 1.0 | 9.0 | 0.00 | 0.00 | 0.00 | 66 | 1016.0 |
| 20260502201514 | 0 | 107 | 3.0 | 9.0 | 0.00 | 0.00 | 0.00 | 69 | 1016.1 |
| 20260502200951 | 0 | 99 | 2.0 | 9.0 | 0.00 | 0.00 | 0.00 | 70 | 1016.2 |
| 20260502200428 | 0 | 84 | 1.0 | 9.0 | 0.00 | 0.00 | 0.00 | 70 | 1016.1 |
| 20260502195905 | 0 | 100 | 2.0 | 8.0 | 0.00 | 0.00 | 0.00 | 69 | 1016.0 |
| 20260502195342 | 0 | 117 | 4.0 | 8.0 | 0.00 | 0.00 | 0.00 | 69 | 1016.1 |
| 20260502194819 | 0 | 85 | 4.0 | 8.0 | 0.00 | 0.00 | 0.00 | 67 | 1016.2 |
| 20260502194256 | 0 | 98 | 3.0 | 8.0 | 0.00 | 0.00 | 0.00 | 65 | 1016.1 |
| 20260502193733 | 0 | 112 | 2.0 | 8.0 | 0.00 | 0.00 | 0.00 | 64 | 1016.2 |
| 20260502193210 | 0 | 105 | 4.0 | 8.0 | 0.00 | 0.00 | 0.00 | 64 | 1016.2 |
| 20260502192649 | 0 | 99 | 4.0 | 7.0 | 0.00 | 0.00 | 0.00 | 62 | 1016.5 |
| 20260502192124 | 0 | 100 | 0.0 | 9.0 | 0.00 | 0.00 | 0.00 | 63 | 1016.4 |
| 20260502191601 | 0 | 96 | 2.0 | 9.0 | 0.00 | 0.00 | 0.00 | 62 | 1016.5 |
| 20260502191038 | 0 | 86 | 0.0 | 9.0 | 0.00 | 0.00 | 0.00 | 60 | 1016.3 |
| 20260502190516 | 0 | 103 | 5.0 | 10.0 | 0.00 | 0.00 | 0.00 | 60 | 1016.3 |
| 20260502185952 | 0 | 91 | 3.0 | 10.0 | 0.00 | 0.00 | 0.00 | 59 | 1016.5 |
| 20260502185429 | 0 | 82 | 1.0 | 10.0 | 0.00 | 0.00 | 0.00 | 57 | 1016.6 |
| 20260502184906 | 0 | 98 | 4.0 | 10.0 | 0.00 | 0.00 | 0.00 | 58 | 1016.4 |
| 20260502184343 | 0 | 86 | 3.0 | 8.0 | 0.00 | 0.00 | 0.00 | 58 | 1016.7 |
| 20260502183820 | 0 | 96 | 0.0 | 8.0 | 0.00 | 0.00 | 0.00 | 60 | 1016.7 |
| 20260502183257 | 0 | 91 | 3.0 | 8.0 | 0.00 | 0.00 | 0.00 | 60 | 1016.7 |
| 20260502182734 | 0 | 72 | 2.0 | 7.0 | 0.00 | 0.00 | 0.00 | 62 | 1016.7 |
| 20260502182211 | 0 | 113 | 0.0 | 8.0 | 0.00 | 0.00 | 0.00 | 63 | 1016.6 |
| 20260502181648 | 0 | 105 | 1.0 | 8.0 | 0.00 | 0.00 | 0.00 | 63 | 1016.7 |
| 20260502181125 | 0 | 92 | 1.0 | 6.0 | 0.00 | 0.00 | 0.00 | 62 | 1016.8 |
| 20260502180602 | 0 | 107 | 2.0 | 6.0 | 0.00 | 0.00 | 0.00 | 60 | 1016.7 |
| 20260502170126 | 0 | 71 | 0.0 | 5.0 | 0.00 | 0.00 | 0.00 | 64 | 1016.6 |
| 20260502163954 | 0 | 266 | 0.0 | 4.0 | 0.00 | 0.00 | 0.00 | 64 | 1016.5 |
| 20260502163431 | 0 | 249 | 0.0 | 4.0 | 0.00 | 0.00 | 0.00 | 68 | 1016.5 |
| 20260502162908 | 0 | 85 | 0.0 | 5.0 | 0.00 | 0.00 | 0.00 | 68 | 1016.5 |
| 20260502162345 | 0 | 82 | 0.0 | 5.0 | 0.00 | 0.00 | 0.00 | 69 | 1016.5 |
| 20260502161823 | 0 | 102 | 0.0 | 5.0 | 0.00 | 0.00 | 0.00 | 70 | 1016.5 |
| 20260502161300 | 0 | 215 | 1.0 | 4.0 | 0.00 | 0.00 | 0.00 | 71 | 1016.5 |
| 20260502160736 | 0 | 252 | 2.0 | 3.0 | 0.00 | 0.00 | 0.00 | 73 | 1016.5 |
| 20260502160213 | 0 | 210 | 0.0 | 5.0 | 0.00 | 0.00 | 0.00 | 74 | 1016.6 |
| 20260502151908 | 0 | 214 | 3.0 | 7.0 | 0.00 | 0.00 | 0.00 | 79 | 1016.9 |
| 20260502151345 | 0 | 246 | 0.0 | 4.0 | 0.00 | 0.00 | 0.00 | 79 | 1016.9 |
| 20260502150823 | 0 | 253 | 0.0 | 4.0 | 0.00 | 0.00 | 0.00 | 80 | 1016.6 |
| 20260502150259 | 0 | 240 | 0.0 | 4.0 | 0.00 | 0.00 | 0.00 | 80 | 1016.5 |
| 20260502130433 | 0 | 280 | 2.0 | 7.0 | 0.00 | 0.00 | 0.00 | 72 | 1016.6 |
| 20260502123739 | 0 | 260 | 0.0 | 7.0 | 0.00 | 0.00 | 0.00 | 68 | 1016.8 |
| 20260502123215 | 0 | 232 | 1.0 | 9.0 | 0.00 | 0.00 | 0.00 | 69 | 1016.7 |
| 20260502122652 | 0 | 256 | 0.0 | 9.0 | 0.00 | 0.00 | 0.00 | 70 | 1016.7 |
| 20260502122129 | 0 | 218 | 2.0 | 9.0 | 0.00 | 0.00 | 0.00 | 68 | 1016.8 |
| 20260502121606 | 0 | 281 | 2.0 | 7.0 | 0.00 | 0.00 | 0.00 | 69 | 1016.8 |
| 20260502121043 | 0 | 259 | 2.0 | 7.0 | 0.00 | 0.00 | 0.00 | 68 | 1016.7 |
| 20260502120520 | 0 | 249 | 1.0 | 7.0 | 0.00 | 0.00 | 0.00 | 68 | 1016.7 |
| 20260502115434 | 0 | 236 | 1.0 | 6.0 | 0.00 | 0.00 | 0.00 | 70 | 1016.7 |
| 20260502114912 | 0 | 231 | 0.0 | 8.0 | 0.00 | 0.00 | 0.00 | 70 | 1016.7 |
| 20260502114348 | 0 | 247 | 1.0 | 8.0 | 0.00 | 0.00 | 0.00 | 68 | 1016.7 |
| 20260502113825 | 0 | 264 | 2.0 | 8.0 | 0.00 | 0.00 | 0.00 | 71 | 1016.7 |
| 20260502113302 | 0 | 221 | 2.0 | 8.0 | 0.00 | 0.00 | 0.00 | 68 | 1016.8 |
| 20260502112739 | 0 | 226 | 4.0 | 7.0 | 0.00 | 0.00 | 0.00 | 70 | 1016.6 |
| 20260502112216 | 0 | 253 | 3.0 | 8.0 | 0.00 | 0.00 | 0.00 | 69 | 1016.7 |
| 20260502111653 | 0 | 207 | 3.0 | 8.0 | 0.00 | 0.00 | 0.00 | 67 | 1016.8 |
| 20260502111130 | 0 | 264 | 2.0 | 9.0 | 0.00 | 0.00 | 0.00 | 68 | 1016.7 |
| 20260502110607 | 0 | 231 | 1.0 | 9.0 | 0.00 | 0.00 | 0.00 | 68 | 1016.6 |
| 20260502110044 | 0 | 215 | 1.0 | 9.0 | 0.00 | 0.00 | 0.00 | 69 | 1016.7 |
| 20260502105522 | 0 | 250 | 3.0 | 9.0 | 0.00 | 0.00 | 0.00 | 70 | 1016.9 |
| 20260502104958 | 0 | 292 | 2.0 | 9.0 | 0.00 | 0.00 | 0.00 | 71 | 1016.8 |
| 20260502104435 | 0 | 225 | 2.0 | 9.0 | 0.00 | 0.00 | 0.00 | 71 | 1016.8 |
| 20260502103912 | 0 | 249 | 1.0 | 8.0 | 0.00 | 0.00 | 0.00 | 71 | 1016.7 |
| 20260502103349 | 0 | 256 | 1.0 | 8.0 | 0.00 | 0.00 | 0.00 | 69 | 1016.8 |
| 20260502102827 | 0 | 239 | 2.0 | 8.0 | 0.00 | 0.00 | 0.00 | 70 | 1016.8 |
| 20260502102306 | 0 | 289 | 1.0 | 8.0 | 0.00 | 0.00 | 0.00 | 72 | 1016.9 |
| 20260502101740 | 0 | 63 | 0.0 | 8.0 | 0.00 | 0.00 | 0.00 | 72 | 1016.9 |
| 20260502101217 | 0 | 98 | 0.0 | 7.0 | 0.00 | 0.00 | 0.00 | 69 | 1017.0 |
| 20260502100654 | 0 | 65 | 1.0 | 12.0 | 0.00 | 0.00 | 0.00 | 72 | 1017.1 |
| 20260502100131 | 0 | 123 | 0.0 | 12.0 | 0.00 | 0.00 | 0.00 | 69 | 1017.1 |
| 20260502091304 | 0 | 344 | 1.0 | 9.0 | 0.00 | 0.00 | 0.00 | 68 | 1017.5 |
| 20260502090740 | 0 | 266 | 0.0 | 9.0 | 0.00 | 0.00 | 0.00 | 71 | 1017.4 |
| 20260502090217 | 0 | 224 | 1.0 | 7.0 | 0.00 | 0.00 | 0.00 | 71 | 1017.8 |
| 20260502071437 | 0 | 280 | 0.0 | 6.0 | 0.00 | 0.01 | 0.00 | 72 | 1018.4 |
| 20260502070914 | 0 | 256 | 2.0 | 6.0 | 0.00 | 0.01 | 0.00 | 71 | 1018.4 |
| 20260502070351 | 0 | 298 | 1.0 | 5.0 | 0.00 | 0.01 | 0.00 | 73 | 1018.2 |
| 20260502065828 | 0 | 273 | 0.0 | 5.0 | 0.00 | 0.01 | 0.00 | 73 | 1018.2 |
| 20260502065306 | 0 | 250 | 1.0 | 6.0 | 0.00 | 0.01 | 0.00 | 72 | 1018.3 |
| 20260502064742 | 0 | 242 | 1.0 | 6.0 | 0.00 | 0.01 | 0.00 | 70 | 1018.4 |
| 20260502064219 | 0 | 301 | 1.0 | 8.0 | 0.00 | 0.01 | 0.00 | 70 | 1018.3 |
| 20260502063656 | 0 | 254 | 2.0 | 8.0 | 0.00 | 0.01 | 0.00 | 71 | 1018.3 |
| 20260502063133 | 0 | 250 | 2.0 | 8.0 | 0.00 | 0.01 | 0.00 | 71 | 1018.5 |
| 20260502062610 | 0 | 114 | 2.0 | 11.0 | 0.00 | 0.01 | 0.00 | 72 | 1018.6 |
| 20260502062047 | 0 | 250 | 0.0 | 11.0 | 0.00 | 0.01 | 0.00 | 73 | 1018.6 |
| 20260502061524 | 0 | 68 | 0.0 | 11.0 | 0.00 | 0.01 | 0.00 | 70 | 1018.7 |
| 20260502061001 | 0 | 243 | 2.0 | 9.0 | 0.00 | 0.01 | 0.00 | 72 | 1018.4 |
| 20260502060438 | 0 | 292 | 2.0 | 9.0 | 0.00 | 0.01 | 0.00 | 71 | 1018.7 |
| 20260502055915 | 0 | 99 | 2.0 | 9.0 | 0.00 | 0.01 | 0.00 | 72 | 1018.6 |
| 20260502055352 | 0 | 103 | 1.0 | 9.0 | 0.00 | 0.01 | 0.00 | 73 | 1018.6 |
| 20260502054829 | 0 | 138 | 1.0 | 9.0 | 0.00 | 0.01 | 0.00 | 72 | 1018.5 |
| 20260502054306 | 0 | 127 | 1.0 | 7.0 | 0.00 | 0.01 | 0.00 | 73 | 1018.6 |
| 20260502053743 | 0 | 232 | 2.0 | 9.0 | 0.00 | 0.01 | 0.00 | 69 | 1018.7 |
| 20260502053220 | 0 | 277 | 1.0 | 9.0 | 0.00 | 0.01 | 0.00 | 71 | 1018.5 |
| 20260502052700 | 0 | 259 | 2.0 | 9.0 | 0.00 | 0.01 | 0.00 | 72 | 1018.6 |
| 20260502052134 | 0 | 266 | 1.0 | 9.0 | 0.00 | 0.01 | 0.00 | 72 | 1018.6 |
| 20260502051611 | 0 | 103 | 0.0 | 10.0 | 0.00 | 0.01 | 0.00 | 72 | 1018.7 |
| 20260502051049 | 0 | 226 | 2.0 | 10.0 | 0.00 | 0.01 | 0.00 | 72 | 1018.5 |
| 20260502050526 | 0 | 259 | 1.0 | 10.0 | 0.00 | 0.01 | 0.00 | 70 | 1018.5 |
| 20260502050002 | 0 | 229 | 2.0 | 4.0 | 0.00 | 0.01 | 0.00 | 70 | 1018.5 |
| 20260502045439 | 0 | 65 | 0.0 | 8.0 | 0.00 | 0.01 | 0.00 | 69 | 1018.5 |
| 20260502044916 | 0 | 247 | 0.0 | 8.0 | 0.00 | 0.01 | 0.00 | 71 | 1018.4 |
| 20260502044353 | 0 | 256 | 2.0 | 8.0 | 0.00 | 0.01 | 0.00 | 69 | 1018.4 |
| 20260502043830 | 0 | 245 | 1.0 | 6.0 | 0.00 | 0.01 | 0.00 | 72 | 1018.3 |
| 20260502043307 | 0 | 95 | 1.0 | 8.0 | 0.00 | 0.01 | 0.00 | 71 | 1018.4 |
| 20260502042747 | 0 | 99 | 2.0 | 8.0 | 0.00 | 0.01 | 0.00 | 71 | 1018.2 |
| 20260502042221 | 0 | 198 | 1.0 | 7.0 | 0.00 | 0.01 | 0.00 | 71 | 1018.3 |
| 20260502041658 | 0 | 235 | 1.0 | 7.0 | 0.00 | 0.01 | 0.00 | 72 | 1018.4 |
| 20260502041135 | 0 | 246 | 3.0 | 7.0 | 0.00 | 0.01 | 0.00 | 71 | 1018.4 |
| 20260502040612 | 0 | 263 | 1.0 | 7.0 | 0.00 | 0.01 | 0.00 | 70 | 1018.3 |
| 20260502040049 | 0 | 250 | 1.0 | 7.0 | 0.00 | 0.01 | 0.00 | 71 | 1018.3 |
| 20260502035526 | 0 | 252 | 1.0 | 6.0 | 0.00 | 0.01 | 0.00 | 70 | 1018.2 |
| 20260502035003 | 0 | 240 | 1.0 | 8.0 | 0.00 | 0.01 | 0.00 | 71 | 1018.2 |
| 20260502034440 | 0 | 240 | 2.0 | 8.0 | 0.00 | 0.01 | 0.00 | 72 | 1018.1 |
| 20260502033917 | 0 | 208 | 1.0 | 8.0 | 0.00 | 0.01 | 0.00 | 70 | 1018.2 |
| 20260502033354 | 0 | 240 | 3.0 | 10.0 | 0.00 | 0.01 | 0.00 | 72 | 1018.2 |
| 20260502032831 | 0 | 270 | 2.0 | 10.0 | 0.00 | 0.01 | 0.00 | 72 | 1018.2 |
| 20260502032308 | 0 | 240 | 4.0 | 6.0 | 0.00 | 0.01 | 0.00 | 70 | 1018.2 |
| 20260502031746 | 0 | 268 | 2.0 | 6.0 | 0.00 | 0.01 | 0.00 | 72 | 1018.3 |
| 20260502031222 | 0 | 305 | 1.0 | 6.0 | 0.00 | 0.01 | 0.00 | 72 | 1018.4 |
| 20260502030659 | 0 | 270 | 1.0 | 6.0 | 0.00 | 0.01 | 0.00 | 72 | 1018.2 |
| 20260502030136 | 0 | 239 | 0.0 | 6.0 | 0.00 | 0.01 | 0.00 | 73 | 1018.3 |
| 20260502025613 | 0 | 247 | 0.0 | 6.0 | 0.00 | 0.01 | 0.00 | 70 | 1018.1 |
| 20260502025050 | 0 | 256 | 2.0 | 11.0 | 0.00 | 0.01 | 0.00 | 71 | 1018.1 |
| 20260502024527 | 0 | 65 | 1.0 | 11.0 | 0.00 | 0.01 | 0.00 | 71 | 1018.0 |
| 20260502024004 | 0 | 88 | 0.0 | 11.0 | 0.00 | 0.01 | 0.00 | 71 | 1018.0 |
| 20260502023441 | 0 | 117 | 2.0 | 7.0 | 0.00 | 0.01 | 0.00 | 72 | 1017.9 |
| 20260502022918 | 0 | 259 | 1.0 | 6.0 | 0.00 | 0.01 | 0.00 | 72 | 1017.6 |
| 20260502022355 | 0 | 78 | 1.0 | 6.0 | 0.00 | 0.01 | 0.00 | 72 | 1017.8 |
| 20260502021832 | 0 | 133 | 0.0 | 9.0 | 0.00 | 0.01 | 0.00 | 72 | 1017.8 |
| 20260502021309 | 0 | 259 | 2.0 | 9.0 | 0.00 | 0.01 | 0.00 | 72 | 1017.8 |
| 20260502020746 | 0 | 121 | 0.0 | 9.0 | 0.00 | 0.01 | 0.00 | 74 | 1017.6 |
| 20260502020224 | 0 | 99 | 1.0 | 10.0 | 0.00 | 0.01 | 0.00 | 72 | 1017.8 |
| 20260502015700 | 0 | 86 | 0.0 | 10.0 | 0.00 | 0.01 | 0.00 | 75 | 1017.8 |
| 20260502015137 | 0 | 65 | 3.0 | 7.0 | 0.00 | 0.01 | 0.00 | 71 | 1017.6 |
| 20260502014614 | 0 | 91 | 3.0 | 8.0 | 0.00 | 0.01 | 0.00 | 74 | 1017.8 |
| 20260502014051 | 0 | 98 | 2.0 | 8.0 | 0.00 | 0.01 | 0.00 | 74 | 1017.9 |
| 20260502013527 | 0 | 91 | 1.0 | 8.0 | 0.00 | 0.01 | 0.00 | 73 | 1017.8 |
| 20260502013005 | 0 | 64 | 1.0 | 11.0 | 0.00 | 0.01 | 0.00 | 71 | 1017.8 |
| 20260502012441 | 0 | 334 | 2.0 | 11.0 | 0.00 | 0.01 | 0.00 | 73 | 1017.8 |
| 20260502011918 | 0 | 95 | 3.0 | 11.0 | 0.00 | 0.01 | 0.00 | 73 | 1017.6 |
| 20260502011356 | 0 | 89 | 1.0 | 11.0 | 0.00 | 0.01 | 0.00 | 74 | 1017.9 |
| 20260502010833 | 0 | 263 | 1.0 | 10.0 | 0.00 | 0.01 | 0.00 | 74 | 1017.8 |
| 20260502010309 | 0 | 71 | 2.0 | 10.0 | 0.00 | 0.01 | 0.00 | 74 | 1018.0 |
| 20260502005746 | 0 | 281 | 0.0 | 10.0 | 0.00 | 0.01 | 0.00 | 75 | 1017.9 |
| 20260502005223 | 0 | 100 | 1.0 | 10.0 | 0.00 | 0.01 | 0.00 | 72 | 1017.9 |
| 20260502004700 | 0 | 77 | 2.0 | 10.0 | 0.00 | 0.01 | 0.00 | 71 | 1017.9 |
| 20260502004137 | 0 | 88 | 2.0 | 10.0 | 0.00 | 0.01 | 0.00 | 71 | 1018.0 |
| 20260502003614 | 0 | 102 | 1.0 | 10.0 | 0.00 | 0.01 | 0.00 | 71 | 1017.9 |
| 20260502003051 | 0 | 96 | 1.0 | 7.0 | 0.00 | 0.01 | 0.00 | 70 | 1018.0 |
| 20260502002529 | 0 | 260 | 3.0 | 10.0 | 0.00 | 0.01 | 0.00 | 70 | 1017.9 |
| 20260502002005 | 0 | 119 | 1.0 | 10.0 | 0.00 | 0.01 | 0.00 | 70 | 1017.9 |
| 20260502001443 | 0 | 106 | 1.0 | 10.0 | 0.00 | 0.01 | 0.00 | 69 | 1018.0 |
| 20260502000919 | 0 | 155 | 2.0 | 8.0 | 0.00 | 0.01 | 0.00 | 69 | 1018.2 |
| 20260502000356 | 0 | 110 | 1.0 | 10.0 | 0.00 | 0.01 | 0.00 | 69 | 1018.3 |
| 20260501235833 | 0 | 63 | 2.0 | 10.0 | 0.00 | 0.01 | 0.00 | 69 | 1018.2 |
| 20260501235311 | 0 | 99 | 3.0 | 8.0 | 0.00 | 0.01 | 0.00 | 69 | 1018.2 |
| 20260501234748 | 0 | 72 | 1.0 | 7.0 | 0.00 | 0.01 | 0.00 | 70 | 1018.2 |
| 20260501234225 | 0 | 77 | 1.0 | 10.0 | 0.00 | 0.01 | 0.01 | 67 | 1018.4 |
| 20260501233701 | 0 | 95 | 1.0 | 10.0 | 0.00 | 0.01 | 0.01 | 68 | 1018.4 |
| 20260501233138 | 0 | 98 | 1.0 | 9.0 | 0.00 | 0.01 | 0.01 | 70 | 1018.5 |
| 20260501232615 | 0 | 91 | 2.0 | 11.0 | 0.00 | 0.01 | 0.01 | 69 | 1018.3 |
| 20260501232052 | 0 | 124 | 1.0 | 11.0 | 0.00 | 0.01 | 0.01 | 69 | 1018.6 |
| 20260501231621 | 0 | 64 | 1.0 | 11.0 | 0.00 | 0.01 | 0.01 | 68 | 1018.6 |
| 20260501231529 | 0 | 64 | 1.0 | 11.0 | 0.00 | 0.01 | 0.01 | 68 | 1018.6 |
| 20260501231007 | 0 | 110 | 2.0 | 10.0 | 0.00 | 0.01 | 0.01 | 70 | 1018.6 |
| 20260501230443 | 0 | 99 | 0.0 | 10.0 | 0.00 | 0.01 | 0.01 | 68 | 1018.7 |
| 20260501225921 | 0 | 113 | 1.0 | 9.0 | 0.00 | 0.01 | 0.01 | 68 | 1018.7 |
| 20260501225357 | 0 | 79 | 0.0 | 7.0 | 0.00 | 0.01 | 0.01 | 69 | 1019.0 |
| 20260501224834 | 0 | 86 | 1.0 | 7.0 | 0.00 | 0.01 | 0.01 | 68 | 1019.0 |
| 20260501224311 | 0 | 121 | 2.0 | 6.0 | 0.00 | 0.01 | 0.01 | 69 | 1018.9 |
| 20260501223748 | 0 | 100 | 2.0 | 9.0 | 0.00 | 0.01 | 0.01 | 69 | 1018.9 |
| 20260501223225 | 0 | 65 | 1.0 | 9.0 | 0.00 | 0.01 | 0.01 | 68 | 1019.0 |
| 20260501222702 | 0 | 78 | 2.0 | 8.0 | 0.00 | 0.01 | 0.01 | 68 | 1019.0 |
| 20260501222139 | 0 | 277 | 1.0 | 8.0 | 0.00 | 0.01 | 0.01 | 68 | 1019.0 |
| 20260501221617 | 0 | 109 | 1.0 | 8.0 | 0.00 | 0.01 | 0.01 | 67 | 1019.0 |
| 20260501221053 | 0 | 98 | 1.0 | 6.0 | 0.00 | 0.01 | 0.01 | 67 | 1019.1 |
| 20260501220531 | 0 | 99 | 1.0 | 11.0 | 0.00 | 0.01 | 0.01 | 66 | 1019.2 |
| 20260501220008 | 0 | 109 | 2.0 | 11.0 | 0.00 | 0.01 | 0.01 | 66 | 1019.1 |
| 20260501215444 | 0 | 86 | 4.0 | 11.0 | 0.00 | 0.01 | 0.01 | 67 | 1019.2 |
| 20260501214921 | 0 | 99 | 2.0 | 7.0 | 0.00 | 0.01 | 0.01 | 67 | 1019.2 |
| 20260501214358 | 0 | 289 | 1.0 | 10.0 | 0.00 | 0.01 | 0.01 | 67 | 1019.1 |
| 20260501213836 | 0 | 109 | 2.0 | 10.0 | 0.00 | 0.01 | 0.01 | 65 | 1019.2 |
| 20260501213313 | 0 | 259 | 2.0 | 8.0 | 0.00 | 0.01 | 0.01 | 68 | 1019.2 |
| 20260501212749 | 0 | 85 | 2.0 | 7.0 | 0.00 | 0.01 | 0.01 | 67 | 1019.1 |
| 20260501212228 | 0 | 92 | 3.0 | 7.0 | 0.00 | 0.01 | 0.01 | 67 | 1019.2 |
| 20260501211703 | 0 | 112 | 3.0 | 9.0 | 0.00 | 0.01 | 0.01 | 67 | 1019.3 |
| 20260501211140 | 0 | 95 | 2.0 | 9.0 | 0.00 | 0.01 | 0.01 | 67 | 1019.0 |
| 20260501210617 | 0 | 82 | 1.0 | 7.0 | 0.00 | 0.01 | 0.01 | 67 | 1019.2 |